Regional Weather Roundup
Issued by NWS San Angelo, TX

Home | Current Version | Previous Version | Text Only | Print | Product List | Glossary On
Versions: 1 2 3 4 5 6 7 8 9 10 11 12 13 14 15 16 17 18 19 20 21 22 23 24 25 26 27 28 29 30 31 32 33 34 35 36 37 38 39 40 41 42 43 44 45 46 47 48 49 50
000
ASUS44 KSJT 011910
RWRSJT
WEST CENTRAL TEXAS REGIONAL WEATHER ROUNDUP
NATIONAL WEATHER SERVICE SAN ANGELO TX
100 PM CST WED MAR 01 2017

NOTE: "FAIR" INDICATES FEW OR NO CLOUDS BELOW 12,000 FEET WITH NO
SIGNIFICANT WEATHER AND/OR OBSTRUCTIONS TO VISIBILITY.

TXZ049-054-064>066-071>073-076>078-098-099-113-114-127-128-139-140-
154-155-168>170-012000
...LOCATIONS ACROSS WEST CENTRAL TEXAS...

CITY           SKY/WX    TMP DP  RH WIND       PRES   REMARKS
SAN ANGELO     SUNNY     61  24  24 NE16G23   30.28F
ABILENE        SUNNY     57  15  19 N16G24    30.29F
DYESS AFB      SUNNY     57  15  19 NE17G23   30.28F
JUNCTION       SUNNY     64  30  27 N12G21    30.24S
SWEETWATER     SUNNY     56  11  16 N16G22    30.32F
BROWNWOOD      SUNNY     61  18  18 N15G23    30.26F
COLEMAN        CLEAR     60  18  19 N17G26    30.27F
SONORA         SUNNY     63  28  27 N15       30.29F
OZONA          FAIR      61  27  27 MISG      30.29F
BRADY          NOT AVBL
$$

TEXAS PANHANDLE/OKLAHOMA PANHANDLE

CITY           SKY/WX    TMP DP  RH WIND       PRES   REMARKS
AMARILLO       SUNNY     52   8  17 N12       30.32F
BORGER         SUNNY     50   7  17 N6        30.32F
CANADIAN       SUNNY     53   2  12 NW15G22   30.31F
DALHART        SUNNY     48  11  22 VRB7      30.30F
DUMAS          CLEAR     48  10  21 NW6       30.30F
GUYMON         NOT AVBL
HEREFORD       CLEAR     50  15  24 E8        30.32F
PAMPA          CLEAR     51   6  16 N12G20    30.32F
PERRYTON       SUNNY     53   3  13 N22G30    30.29S
$$

SOUTHERN PANHANDLE/SOUTH PLAINS/ROLLING PLAINS

CITY           SKY/WX    TMP DP  RH WIND       PRES   REMARKS
LUBBOCK        MOSUNNY   53   8  16 VRB6      30.30F
SNYDER         SUNNY     55  13  18 E14G21    30.30F
CHILDRESS      SUNNY     57  12  17 NE12G17   30.32F
SEMINOLE       CLEAR     55  19  24 E3        30.31F
$$

PERMIAN BASIN

CITY           SKY/WX    TMP DP  RH WIND       PRES   REMARKS
MIDLAND        SUNNY     58  18  21 E7G20     30.29F
ODESSA         MOSUNNY   57  17  21 E13G21    30.30F
WINK           SUNNY     61  20  20 NE12G17   30.28F
$$

FAR WEST/SOUTHWEST MOUNTAINS/TRANS PECOS

CITY           SKY/WX    TMP DP  RH WIND       PRES   REMARKS
ALPINE         CLEAR     60  24  24 NE7       30.34F
DRYDEN           N/A     71  26  18 N14G26    30.22F
EL PASO        MOSUNNY   59  18  20 N7        30.30F
FORT STOCKTON  SUNNY     62  25  24 N10G17    30.29F
GUADALUPE PASS SUNNY     53  24  32 E13       30.30
MARFA          SUNNY     61  23  23 VRB5      30.28F
PECOS          CLEAR     61  22  22 N12       30.29F
$$

DALLAS/FORT WORTH METROPLEX

CITY           SKY/WX    TMP DP  RH WIND       PRES   REMARKS
DFW AIRPORT    MOSUNNY   65  16  15 N16G26    30.22S
FTW MEACHAM    SUNNY     65  14  14 N21G31    30.24S
DAL-EXECUTIVE  SUNNY     63  23  21 NW18G26   30.22S
GRAND PRAIRIE  NOT AVBL
ADDISON        SUNNY     63  16  16 N17G26    30.23F
MESQUITE       CLEAR     63  25  23 N16G26    30.22F
LANCASTER      CLEAR     61  29  29 N17G26    30.23F
$$

NORTH CENTRAL TEXAS

CITY           SKY/WX    TMP DP  RH WIND       PRES   REMARKS
SHRMAN/DENISON CLEAR     62  16  16 N20       30.24F
GAINESVILLE    SUNNY     62  12  14 NW24      30.26F
BRIDGEPORT     CLEAR     62  17  18 N18       30.28F
DENTON         SUNNY     63  16  16 N22G30    30.24F
WAXAHACHIE     CLEAR     63  29  28 N21G26    30.23F
GRANBURY       NOT AVBL
$$

WESTERN NORTH TEXAS

CITY           SKY/WX    TMP DP  RH WIND       PRES   REMARKS
WICHITA FALLS  MOSUNNY   61  13  15 N20G31    30.29F
VERNON         CLEAR     59   2  10 NE15      30.32F
BRECKENRIDGE   CLEAR     61  13  15 N15G24    30.28F
COMANCHE       SUNNY     60  26  27 NE12G28   30.26F
$$

CENTRAL AND SOUTH CENTRAL TEXAS

CITY           SKY/WX    TMP DP  RH WIND       PRES   REMARKS
AUSTIN/BERGSTM PTSUNNY   72  40  31 N15G26    30.15F
WACO           SUNNY     64  34  32 N15G26    30.21S
HILLSBORO      CLEAR     64  30  27 N20G30    30.21F
TEMPLE         SUNNY     64  36  35 N21G28    30.20F
KILLEEN-GRAY   SUNNY     64  32  30 N17G24    30.19F
FORT HOOD      MOSUNNY   65  33  29 N17G23    30.17F
GEORGETOWN     SUNNY     66  36  32 N18G24    30.18F
LAGO VISTA     FAIR      66  34  30 NE10G21   30.19F
SAN MARCOS     SUNNY     73  41  31 N17G24    30.16F
NEW BRAUNFELS  MOSUNNY   75  38  26 NE16      30.13F
RANDOLPH AFB   MOSUNNY   74  36  25 N17       30.14S
SAN ANTONIO    PTSUNNY   74  37  26 N22G31    30.15S
STINSON        MOSUNNY   78  41  26 N16G23    30.11F
PLEASANTON     NOT AVBL
LA GRANGE      PTSUNNY   71  47  41 N16       30.11F
GIDDINGS       PTCLDY    68  42  39 N12G20    30.15F
$$

EAST TEXAS

CITY           SKY/WX    TMP DP  RH WIND       PRES   REMARKS
PARIS          SUNNY     63  25  23 NW22      30.19F
CLARKSVILLE    NOT AVBL
TYLER          MOSUNNY   66  31  27 N14       30.16F
LONGVIEW       PTSUNNY   66  37  34 N15G22    30.14S
PALESTINE      PTCLDY    67  39  35 NW13G23   30.17F
NACOGDOCHES    PTSUNNY   72  43  35 N16       30.09F
$$

TEXAS HILL COUNTRY AND EDWARDS PLATEAU

CITY           SKY/WX    TMP DP  RH WIND       PRES   REMARKS
LLANO          CLEAR     66  34  30 N9        30.25F
HORSESHOE BAY  FAIR      67  34  29 N9G16     30.21F
KERRVILLE      SUNNY     66  38  35 N12G22    30.20S
FREDERICKSBRG  SUNNY     64  33  31 NE10      30.21S
ROCKSPRINGS    CLEAR     64  34  32 N9G21     30.24S
HONDO          MOSUNNY   77  35  21 N21G26    30.15F
UVALDE         PTCLDY    77  37  23 N5G20     30.15F
DEL RIO        SUNNY     77  30  17 NW15G24   30.16F
$$

SOUTHEAST TEXAS

CITY           SKY/WX    TMP DP  RH WIND       PRES   REMARKS
COLLEGE STN    PTSUNNY   71  41  33 N22       30.13F
CALDWELL       NOT AVBL
CROCKETT       PTCLDY    68  43  40 N9        30.15S
BRENHAM        MOSUNNY   75  46  35 N18       30.12F
HUNTSVILLE     MOSUNNY   72  40  31 N14G24    30.11R
CONROE         SUNNY     78  52  40 N20G28    30.06S
HOUSTON BUSH   CLOUDY    83  54  36 N17       30.02F
HOUSTON HOBBY  CLOUDY    84  60  44 NW13      30.00F
PERLAND        PTSUNNY   84  63  49 VRB7      30.01F
WHARTON        PTCLDY    81  52  36 NW17G25   30.04F
$$

THE UPPER TEXAS COAST

CITY           SKY/WX    TMP DP  RH WIND       PRES   REMARKS
ORANGE         CLOUDY    80  71  74 S12       30.00F
PORT ARTHUR    PTSUNNY   83  69  62 SW6       29.98F
GALVESTON      CLOUDY    77  71  82 S10       30.01F HAZE
ANGLETON       CLOUDY    83  67  58 NW12      30.00F
BAY CITY       CLOUDY    81  66  60 N7        30.01F
$$

TEXAS COASTAL BEND, RIO GRANDE PLAINS DEEP SOUTH TEXAS

CITY           SKY/WX    TMP DP  RH WIND       PRES   REMARKS
VICTORIA       PTSUNNY   81  50  33 N18G25    30.05F
BEEVILLE       FAIR      83  51  32 N18G24    30.06S
ROCKPORT       HVY RAIN  75  69  81 N6        30.03S VSB 1
PORT ARANSAS   CLOUDY    74  69  84 E7        30.02F HAZE
PORT LAVACA    CLOUDY    80  63  55 N14G23    30.03F
CORPUS CHRISTI CLOUDY    79  70  74 CALM      30.02F
KINGSVILLE NAS LGT RAIN  75  73  93 NW3       30.02F VSB 1
COTULLA        CLOUDY    83  31  15 NE16G25   30.10F
LAREDO         SUNNY     85  41  21 N18       30.07F
BROWNSVILLE    MOSUNNY   86  69  56 SW12      29.98F
PORT ISABEL    PTSUNNY   85  68  56 SW10      29.97F
HEBBRONVILLE   PTCLDY    82  55  38 NE23      30.04F
MCALLEN        CLOUDY    85  68  56 NW14G20   30.00F
WESLACO        CLOUDY    84  68  57 W6        29.98F
FALFURRIAS     CLOUDY    76  70  81 CALM      30.02F
EDINBURG       CLOUDY    84  66  55 N10       30.00F
$$




USA.gov is the U.S. government's official web portal to all federal, state and local government web resources and services.